[[[{"header":{"parameterUnit":"kt","parameterCategory":2,"dx":1,"dy":1,"la1":30.253999710083008,"la2":30.299108505249023,"lo1":-89.0895004272461,"lo2":-89.04439544677734,"nx":28,"ny":28,"refTime":"2022-10-24T21:00:00:Z","depth":0,"parameterNumber":1,"parameterNumberName":"U-component_of_WINDS"},"data":[6.8437,6.8584,6.8606,6.8785,6.8835,6.896,6.9012,6.9081,6.9142,6.9294,6.9385,6.9422,6.949,6.9604,6.9703,6.9717,6.9758,6.9796,6.9805,6.9616,6.9591,6.9568,6.9534,6.9804,6.9805,6.9997,6.9999,7.0,6.8302,6.8353,6.8454,6.8565,6.8652,6.8629,6.8716,6.8789,6.8902,6.8977,6.9067,6.9202,6.9311,6.9367,6.9475,6.9545,6.9539,6.9572,6.9567,6.9578,6.9378,6.9342,6.9575,6.9575,6.9575,6.9575,6.9575,6.9575,6.8063,6.815,6.823,6.8338,6.84,6.8475,6.8561,6.8603,6.8701,6.8816,6.8821,6.8948,6.9026,6.9165,6.9216,6.9315,6.9281,6.9324,6.9334,6.9344,6.9354,6.9076,6.9334,6.9334,6.9333,6.9333,6.9332,0,6.7894,6.7906,6.8002,6.8106,6.8186,6.8268,6.8346,6.84,6.8429,6.8508,6.8625,6.8695,6.8833,6.8944,6.9049,6.9093,6.9074,6.9074,6.9104,6.9103,6.909,6.9099,6.8772,6.9066,6.9063,6.9062,6.9061,6.906,6.7654,6.7752,6.7844,6.7909,6.7956,6.806,6.8126,6.8145,6.8214,6.8312,6.8387,6.8499,6.8588,6.877,6.8814,6.8917,6.8909,6.9019,6.8924,6.8921,6.8911,6.8905,6.8915,6.9036,6.9039,6.9042,6.9044,0,6.7518,6.7549,6.7707,6.7787,6.781,6.7912,6.798,6.8067,6.8096,6.822,6.825,6.8295,6.8408,6.8435,6.8568,6.8578,6.8748,6.8738,6.8723,6.8722,6.8824,6.8814,6.9148,6.9193,6.8913,6.8916,6.8918,0,6.7325,6.7452,6.7492,6.7582,6.7725,6.7738,6.7879,6.7918,6.7983,6.808,6.8064,6.8155,6.8174,6.827,6.8285,6.8429,6.8453,6.847,6.8472,6.8471,6.8469,6.8506,6.8492,6.8472,6.8471,6.8469,6.8468,0,6.7107,6.7276,6.7422,6.7465,6.7561,6.763,6.7673,6.7745,6.7808,6.7895,6.7936,6.8036,6.8091,6.8168,6.8187,6.8121,6.8362,6.8275,6.8379,6.8379,6.8429,6.8425,6.8716,6.8466,6.8465,6.8464,6.8464,0,6.6954,6.7042,6.7248,6.7328,6.7371,6.7467,6.7566,6.7654,6.773,6.7746,6.7814,6.7804,6.793,6.7843,6.8018,6.7927,6.7982,6.8009,6.8017,6.8028,6.7929,6.809,6.8365,6.8394,6.8042,6.8039,6.8035,0,6.6697,6.6912,6.6924,6.7119,6.7222,6.7196,6.7303,6.737,6.7399,6.7491,6.7522,6.7625,6.7566,6.7601,6.7684,6.7721,6.7838,6.7706,6.7837,6.7842,6.7818,6.8071,6.8105,6.8302,6.7991,6.7995,6.7999,0,6.65,6.6613,6.6647,6.6697,6.6787,6.6872,6.6994,6.7099,6.7159,6.7235,6.7338,6.7483,6.7444,6.7502,6.7503,6.7588,6.7759,6.7534,6.7536,6.7574,6.7969,6.8002,6.8035,6.7741,6.7747,6.7751,6.7963,0,6.6265,6.6375,6.6467,6.6574,6.6644,6.6766,6.6791,6.6861,6.6856,6.6882,6.7033,6.7092,6.7197,6.7239,6.7234,6.742,6.7392,6.7348,6.7263,6.7429,6.75,6.7528,6.7157,6.7154,6.7152,6.715,0,0,6.6011,6.6168,6.6174,6.6292,6.635,6.6319,6.6447,6.65,6.6607,6.6649,6.6602,6.6814,6.6862,6.7042,6.7096,6.7137,6.7173,6.7112,6.735,6.7372,6.7392,6.7467,6.7497,6.7147,6.7146,6.7146,6.7145,0,6.5929,6.5981,6.6107,6.6163,6.6244,6.6266,6.6296,6.6371,6.6393,6.6539,6.6509,6.6602,6.6768,6.6825,6.6876,6.7093,6.7064,6.7123,6.7232,6.7329,6.7354,6.7376,6.7454,6.7482,6.714,6.714,6.714,0,6.574,6.5795,6.5858,6.5988,6.604,6.6145,6.6063,6.6176,6.6254,6.621,6.6354,6.639,6.6467,6.6632,6.6707,6.6666,6.6963,6.6872,6.6885,6.6893,6.6988,6.7018,6.7045,6.6696,6.6694,6.6692,0,0,6.5666,6.5766,6.5828,6.5972,6.6007,6.6039,6.6096,6.6096,6.6165,6.6193,6.6237,6.6306,6.6403,6.6466,6.6558,6.6736,6.6753,6.6816,6.6837,6.6854,6.6872,6.6971,6.7001,6.6686,6.6686,6.6686,0,0,6.5629,6.5707,6.5689,6.5858,6.5926,6.5995,6.6082,6.606,6.6145,6.6133,6.6136,6.6154,6.6309,6.6343,6.6258,6.6528,6.6444,6.6464,6.6499,6.6526,6.6547,6.6534,6.618,0,0,0,0,0,6.5557,6.5698,6.568,6.5712,6.5874,6.6005,6.6026,6.6032,6.5973,6.6042,6.6075,6.604,6.6299,6.6223,6.6254,6.6349,6.6606,6.6621,6.6634,6.6721,6.6748,6.6772,0,0,0,0,0,0,6.557,6.5609,6.5676,6.5751,6.5788,6.6,6.5902,6.5907,6.5965,6.5957,6.6034,6.6042,6.6049,6.6208,6.6236,6.6325,6.6171,6.6612,6.6624,6.6635,6.673,6.6753,6.6772,0,0,0,0,0,6.558,6.5611,6.5869,6.5749,6.5781,6.5823,6.5896,6.59,6.5945,6.5996,6.6002,6.5944,6.6051,6.6075,6.6224,6.6312,6.6151,6.6162,6.662,6.6629,6.6638,6.6741,0,0,0,0,0,0,6.5587,6.5615,6.5875,6.5885,6.5696,6.5811,6.5829,6.5894,6.598,6.5988,6.5905,6.5897,6.6055,6.6072,6.6091,6.6308,6.6135,6.6146,6.6153,6.6627,6.6634,6.6641,0,0,0,0,0,0,6.5598,6.5624,6.588,6.5813,6.5815,6.58,6.5817,6.5943,6.5982,6.5885,6.5881,6.5901,6.6026,6.6071,6.6086,6.6283,6.6123,6.6133,6.6141,6.6145,6.6633,6.6639,0,0,0,0,0,0,6.5609,6.5631,6.581,6.5812,6.5813,6.5924,6.5912,6.6077,6.5925,6.5881,6.5911,6.5905,6.6026,6.6041,6.6082,6.6274,6.6281,6.6124,6.6131,6.6136,6.6139,0,0,0,0,0,0,0,6.5618,6.547,6.5817,6.5811,6.5812,6.5976,6.5979,6.5982,6.5924,6.5918,6.5913,6.5908,6.6066,6.6077,6.6088,6.6266,0,0,6.6123,6.6128,0,0,0,0,0,0,0,0,6.5461,6.5468,6.5817,6.5819,6.5821,6.5977,6.5979,6.5981,6.5923,6.5918,6.5914,6.591,6.6068,6.6077,6.6087,0,0,0,0,0,0,0,0,0,0,0,0,0,0,0,6.5818,6.5819,0,6.5977,6.5979,6.5981,6.5922,6.5918,6.5915,6.5911,6.6071,6.6078,6.6086,0,0,0,0,0,0,0,0,0,0,0,0,0,0,0,0,0,0,0,0,0,0,0,0,0,0,0,0,0,0,0,0,0,0,0,0,0,0,0,0,0,0,0,0,0,0,0,0,0,0,0,0,0,0,0,0,0,0,0,0,0,0,0,0,0,0,0,0,0]}],[{"header":{"parameterUnit":"kt","parameterCategory":2,"dx":1,"dy":1,"la1":30.253999710083008,"la2":30.299108505249023,"lo1":-89.0895004272461,"lo2":-89.04439544677734,"nx":28,"ny":28,"refTime":"2022-10-24T21:00:00:Z","depth":0,"parameterNumber":2,"parameterNumberName":"V-component_of_WINDS"},"data":[-13.3399,-13.3722,-13.3779,-13.4173,-13.429,-13.4568,-13.4685,-13.4841,-13.4979,-13.5315,-13.5517,-13.5603,-13.5761,-13.6013,-13.6232,-13.6265,-13.6354,-13.6429,-13.6455,-13.6074,-13.6025,-13.5978,-13.5907,-13.6447,-13.6448,-13.6841,-13.6845,-13.6847,-13.3117,-13.3237,-13.3462,-13.3718,-13.3911,-13.3874,-13.4072,-13.4235,-13.4484,-13.4655,-13.4857,-13.5156,-13.5397,-13.5531,-13.5771,-13.5921,-13.5916,-13.5982,-13.5972,-13.5997,-13.5593,-13.5516,-13.5982,-13.5982,-13.5982,-13.5982,-13.5982,-13.5982,-13.2618,-13.281,-13.2998,-13.3242,-13.3386,-13.3556,-13.3747,-13.385,-13.4069,-13.4329,-13.4351,-13.4632,-13.4812,-13.5127,-13.5245,-13.5463,-13.5399,-13.5488,-13.551,-13.5532,-13.555,-13.4977,-13.5506,-13.5505,-13.5504,-13.5503,-13.5502,0,-13.2271,-13.2305,-13.2524,-13.2761,-13.2942,-13.313,-13.331,-13.343,-13.3517,-13.3693,-13.3953,-13.4111,-13.4422,-13.467,-13.4906,-13.5011,-13.4987,-13.499,-13.5052,-13.5047,-13.5013,-13.5036,-13.4375,-13.4974,-13.497,-13.4967,-13.4964,-13.4962,-13.1773,-13.1989,-13.2211,-13.2358,-13.247,-13.2705,-13.2855,-13.2916,-13.3073,-13.3302,-13.3466,-13.3716,-13.392,-13.4322,-13.4436,-13.4667,-13.4658,-13.4881,-13.4692,-13.4679,-13.4663,-13.465,-13.4673,-13.4917,-13.4922,-13.4927,-13.4931,0,-13.1487,-13.1577,-13.1929,-13.2128,-13.2184,-13.2406,-13.2574,-13.2766,-13.2844,-13.3118,-13.3186,-13.3307,-13.3559,-13.3638,-13.394,-13.3973,-13.4337,-13.4321,-13.4276,-13.4278,-13.4486,-13.4466,-13.5149,-13.5242,-13.4681,-13.4686,-13.469,0,-13.1098,-13.1378,-13.1496,-13.1696,-13.2009,-13.2063,-13.2371,-13.2468,-13.2625,-13.2842,-13.2828,-13.3031,-13.3099,-13.3313,-13.3362,-13.3674,-13.373,-13.3773,-13.3783,-13.3776,-13.3771,-13.3859,-13.3833,-13.3795,-13.3792,-13.3789,-13.3786,0,-13.0642,-13.1033,-13.1357,-13.1461,-13.1699,-13.1849,-13.1955,-13.213,-13.2276,-13.2477,-13.2572,-13.2802,-13.2928,-13.3105,-13.3166,-13.3035,-13.3548,-13.3381,-13.3593,-13.3592,-13.3703,-13.3695,-13.428,-13.3781,-13.378,-13.3779,-13.3778,0,-13.0341,-13.0548,-13.1004,-13.1202,-13.1301,-13.1514,-13.1746,-13.1946,-13.2131,-13.2177,-13.2335,-13.2335,-13.2613,-13.2441,-13.2825,-13.2637,-13.2762,-13.2829,-13.2845,-13.2875,-13.2681,-13.3002,-13.355,-13.3611,-13.2902,-13.2895,-13.2889,0,-12.9796,-13.028,-13.033,-13.0761,-13.0996,-13.0967,-13.1203,-13.1368,-13.1448,-13.1657,-13.1743,-13.198,-13.1869,-13.1953,-13.2133,-13.2232,-13.2475,-13.2201,-13.2498,-13.2508,-13.2452,-13.2957,-13.302,-13.3421,-13.2796,-13.2806,-13.2813,0,-12.9384,-12.9672,-12.9746,-12.9866,-13.0094,-13.0289,-13.056,-13.0808,-13.0944,-13.1129,-13.1358,-13.169,-13.1621,-13.176,-13.1783,-13.1966,-13.2312,-13.1866,-13.1871,-13.1944,-13.2756,-13.2814,-13.2882,-13.2286,-13.2298,-13.2307,-13.274,0,-12.8912,-12.9165,-12.9366,-12.963,-12.9794,-13.0067,-13.0153,-13.0312,-13.032,-13.0398,-13.0734,-13.0887,-13.1136,-13.1232,-13.1239,-13.1633,-13.1579,-13.1501,-13.134,-13.167,-13.1815,-13.1874,-13.1117,-13.1113,-13.111,-13.1107,0,0,-12.8368,-12.8732,-12.8777,-12.9044,-12.9184,-12.9149,-12.9434,-12.9566,-12.9833,-12.993,-12.9841,-13.0333,-13.0461,-13.0859,-13.0969,-13.1069,-13.1147,-13.1028,-13.1512,-13.1557,-13.1598,-13.1752,-13.1812,-13.11,-13.1099,-13.1098,-13.1096,0,-12.8213,-12.8349,-12.8631,-12.877,-12.8978,-12.9048,-12.9115,-12.9314,-12.9377,-12.9707,-12.9671,-12.9882,-13.0272,-13.0413,-13.0536,-13.0982,-13.0942,-13.1051,-13.1264,-13.1473,-13.1522,-13.1566,-13.1727,-13.1783,-13.1088,-13.1088,-13.1089,0,-12.7824,-12.7972,-12.8117,-12.8435,-12.857,-12.881,-12.8663,-12.8923,-12.9102,-12.9046,-12.9373,-12.947,-12.9664,-13.003,-13.0196,-13.012,-13.0751,-13.0566,-13.0591,-13.0611,-13.0817,-13.0876,-13.0929,-13.0231,-13.0227,-13.0224,0,0,-12.7678,-12.7913,-12.8089,-12.8408,-12.8495,-12.8602,-12.8738,-12.8759,-12.8937,-12.9008,-12.9131,-12.9303,-12.953,-12.9679,-12.9896,-13.0285,-13.0329,-13.0457,-13.0497,-13.053,-13.0568,-13.0782,-13.0841,-13.0212,-13.0212,-13.0211,0,0,-12.7608,-12.7825,-12.7802,-12.8182,-12.8354,-12.8547,-12.8737,-12.8712,-12.8917,-12.8895,-12.894,-12.8988,-12.933,-12.9425,-12.9248,-12.984,-12.9678,-12.9722,-12.9765,-12.9818,-12.9858,-12.9828,-12.9117,0,0,0,0,0,-12.7494,-12.7798,-12.7775,-12.7851,-12.8252,-12.856,-12.8611,-12.8657,-12.8543,-12.8693,-12.8792,-12.874,-12.9339,-12.9184,-12.9258,-12.9455,-13.005,-13.0079,-13.0106,-13.0254,-13.0307,-13.0353,0,0,0,0,0,0,-12.7524,-12.7618,-12.7767,-12.7972,-12.8062,-12.8549,-12.8366,-12.8387,-12.8528,-12.8514,-12.8722,-12.8746,-12.8789,-12.9149,-12.9215,-12.9401,-12.9095,-13.0062,-13.0086,-13.0108,-13.0272,-13.0316,-13.0354,0,0,0,0,0,-12.7549,-12.7624,-12.8254,-12.7968,-12.8046,-12.8181,-12.8355,-12.8371,-12.8481,-12.8634,-12.8655,-12.8503,-12.8793,-12.8852,-12.9188,-12.937,-12.9049,-12.9074,-13.0077,-13.0097,-13.0114,-13.0294,0,0,0,0,0,0,-12.7567,-12.764,-12.8271,-12.8296,-12.7856,-12.8154,-12.8202,-12.8357,-12.8592,-12.8617,-12.8414,-12.84,-12.88,-12.8844,-12.8889,-12.9357,-12.9012,-12.9037,-12.9053,-13.0092,-13.0107,-13.012,0,0,0,0,0,0,-12.76,-12.7662,-12.8284,-12.8141,-12.815,-12.813,-12.8173,-12.8464,-12.8595,-12.8359,-12.8355,-12.8405,-12.8731,-12.8841,-12.8875,-12.9328,-12.8984,-12.9008,-12.9024,-12.9035,-13.0104,-13.0116,0,0,0,0,0,0,-12.7627,-12.768,-12.8134,-12.8142,-12.8149,-12.8439,-12.8387,-12.8794,-12.8475,-12.8349,-12.8447,-12.8434,-12.8729,-12.8765,-12.8866,-12.9304,-12.9322,-12.8985,-12.9001,-12.9012,-12.902,0,0,0,0,0,0,0,-12.7649,-12.728,-12.812,-12.8143,-12.8149,-12.8533,-12.854,-12.8547,-12.8472,-12.8461,-12.845,-12.844,-12.8848,-12.8874,-12.8901,-12.9285,0,0,-12.8982,-12.8994,0,0,0,0,0,0,0,0,-12.7259,-12.7275,-12.8121,-12.8126,-12.8131,-12.8534,-12.8539,-12.8545,-12.847,-12.8461,-12.8452,-12.8444,-12.8855,-12.8876,-12.8898,0,0,0,0,0,0,0,0,0,0,0,0,0,0,0,-12.8121,-12.8126,0,-12.8535,-12.8539,-12.8544,-12.8469,-12.8462,-12.8454,-12.8447,-12.8861,-12.8878,-12.8896,0,0,0,0,0,0,0,0,0,0,0,0,0,0,0,0,0,0,0,0,0,0,0,0,0,0,0,0,0,0,0,0,0,0,0,0,0,0,0,0,0,0,0,0,0,0,0,0,0,0,0,0,0,0,0,0,0,0,0,0,0,0,0,0,0,0,0,0,0]}]]]